Location: Alpha Ridge Park
(39.3209°N, 76.9128°W)
Time: 03:49:50
(UTC-04:00)

BEESAT - Pass Details

Date: 29 June 2022
Orbit: 700 x 706 km, 98.6° (Epoch: 14 August)

Event Time Altitude Azimuth Distance (km) Brightness Sun altitude
Rises 21:24:49 0° 14° (NNE) 3,101 ? -8.2°
Reaches altitude 10° 21:27:06 10° 17° (NNE) 2,180 ? -8.5°
Maximum altitude 21:31:52 76° 103° (ESE) 730 ? -9.2°
Drops below altitude 10° 21:36:37 10° 189° (S) 2,168 ? -9.9°
Sets 21:38:52 0° 191° (S) 3,082 ? -10.2°
